Terminal Aerodrome Forecast
Issued by NWS Atlanta, GA

Home | Current Version | Previous Version | Text Only | Print | Product List | Glossary On
Versions: 1 2 3 4 5 6 7 8 9 10 11 12 13 14 15 16 17 18 19 20 21 22 23 24 25 26 27 28 29 30 31 32 33 34 35 36
963
FTUS42 KFFC 131602 AAB
TAFATL
TAF AMD
KATL 131602Z 1316/1418 34013G22KT P6SM SKC
     FM131800 34011G17KT P6SM SKC
     FM140200 34007KT P6SM FEW200
     FM140600 03004KT P6SM SCT150
     FM141200 10008KT P6SM SCT070=

USA.gov is the U.S. government's official web portal to all federal, state and local government web resources and services.